Regional Weather Roundup
Issued by NWS Burlington, VT

Home | Current Version | Previous Version | Text Only | Print | Product List | Glossary On
Versions: 1 2 3 4 5 6 7 8 9 10 11 12 13 14 15 16 17 18 19 20 21 22 23 24 25 26 27 28 29 30 31 32 33 34 35 36 37 38 39 40 41 42 43 44 45 46 47 48 49 50
000
ASUS41 KBTV 271730
RWRBTV
VERMONT REGIONAL WEATHER ROUNDUP
NATIONAL WEATHER SERVICE BURLINGTON VT
1200 PM EST FRI FEB 27 2015

NOTE: "FAIR" INDICATES FEW OR NO CLOUDS BELOW 12,000 FEET WITH NO
SIGNIFICANT WEATHER AND/OR OBSTRUCTIONS TO VISIBILITY.

* THESE REPORTS ARE NOT UNDER NWS QUALITY CONTROL AND/OR DO NOT
  REPORT WEATHER SUCH AS PRECIPITATION AND FOG.

VTZ001>019-271800-
_____VERMONT_____


CITY           SKY/WX    TMP DP  RH WIND       PRES   REMARKS
BURLINGTON     SUNNY     16  -8  34 VRB3      30.40R
MONTPELIER     SUNNY     12  -8  40 N10       30.33R WCI  -1
MORRISVILLE    SUNNY     15  -8  35 CALM      30.35R
ST. JOHNSBURY*   N/A     15  -8  35 MISG      30.31S
LYNDONVILLE*   FAIR      13 -12  31 SW9       30.30S
MIDDLEBURY*    FAIR      15  -9  33 CALM      30.38S
RUTLAND*       SUNNY     12  -9  37 N10       30.34S WCI  -1
SPRINGFIELD    SUNNY     17  -8  32 W14G22    30.34S WCI   3
HIGHGATE*      FAIR      13  -8  38 NW5       30.41S
NEWPORT*       FAIR      11 -10  37 W5        30.32R
BENNINGTON     SUNNY     14  -5  42 W7        30.35S
SUTTON*          N/A     12 N/A N/A MISG        N/A
MT. MANSFIELD*   N/A      1 N/A N/A CALM        N/A

_____LAKE CHAMPLAIN_____


CITY           SKY/WX    TMP DP  RH WIND       PRES   REMARKS
BURTON ISLAND*   N/A     12  -4  48 NE5         N/A
COLCHESTER RF*   N/A     14  -2  48 S8          N/A
DIAMOND ISL*     N/A     14  -2  48 SW3         N/A

$$

NYZ007-026>031-035-052-083-271800-
_____NORTHERN NEW YORK_____


CITY           SKY/WX    TMP DP  RH WIND       PRES   REMARKS
PLATTSBURGH    MIX PCPN  11  -4  51 SE8       30.40R
SARANAC LAKE   SUNNY     10 -10  40 SW6       30.23F
MASSENA        SUNNY     12  -9  38 W12       30.43F WCI  -2
OGDENSBURG*    SUNNY     19  -6  32 W12       30.42S WCI   7
POTSDAM*       SUNNY     12  -4  48 W10       30.40S WCI  -1
WATERTOWN      SUNNY     14   4  64 W10       30.45R WCI   1
FT DRUM        SUNNY     13   2  60 W10       30.39R WCI   0
ALBANY         MOSUNNY   18  -2  41 W10       30.42S WCI   6
GLENS FALLS    SUNNY     15  -3  44 S3        30.40S

$$
NHZ002-005-011-271800-
_____NEW HAMPSHIRE_____


CITY           SKY/WX    TMP DP  RH WIND       PRES   REMARKS
LEBANON        SUNNY     17  -6  35 VRB5      30.33S
KEENE          SUNNY     18  -4  38 N9        30.33F
MT WASHINGTON  MOSUNNY   -9 -15  77 NW31        N/A  WCI -39
PLYMOUTH       FAIR      18  -2  41 W13G22    30.31R WCI   4
WHITEFIELD     SUNNY     14 -10  33 MISG      30.28S

$$

_____REGIONAL QUEBEC LOCATIONS_____


CITY           SKY/WX    TMP DP  RH WIND       PRES   REMARKS
MONTREAL       SUNNY      9  -8  47 SW14      30.41S WCI  -8
QUEBEC CITY    MOSUNNY    7  -6  56 SW20      30.28F WCI -13
SHERBROOKE     SUNNY     10  -8  44 W9G17     30.29S

_____REGIONAL ONTARIO LOCATIONS_____


CITY           SKY/WX    TMP DP  RH WIND       PRES   REMARKS
OTTAWA         SUNNY     10  -8  44 SW6       30.39F

______KEY______
VSB  - VISIBILITY IN MILES
WCI  - WIND CHILL INDEX
HX   - HEAT INDEX
$$
NNNN



USA.gov is the U.S. government's official web portal to all federal, state and local government web resources and services.